Location: Goll?ig?dem
(16.6773°N, 80.7332°E)
Time: 01:37:16
(UTC+00:00)

Nadezhda 4 Rocket - Pass Details

Date: 21 April 2021
Orbit: 950 x 992 km, 82.9° (Epoch: 07 May)

Event Time Altitude Azimuth Distance (km) Brightness Sun altitude
Rises 13:46:05 0° 2° (N) 3,673 7.2 -12.9°
Reaches altitude 10° 13:48:39 10° 6° (N) 2,718 6.5 -13.5°
Maximum altitude 13:54:47 60° 85° (E) 1,100 4.0 -14.9°
Drops below altitude 10° 14:00:49 10° 164° (SSE) 2,686 6.0 -16.3°
Sets 14:03:20 0° 168° (SSE) 3,625 6.7 -16.8°
Enters shadow 14:03:29 - 168° (SSE) 3,679 6.7 -16.9°
